Regional Weather Roundup
Issued by NWS

Home | Current Version | Previous Version | Text Only | Print | Product List | Glossary Off
Versions: 1 2 3 4 5 6 7 8 9 10 11 12 13 14 15 16 17 18 19 20 21 22 23 24 25 26 27 28 29 30 31 32 33 34 35 36 37 38 39 40 41 42 43 44 45 46 47 48 49 50

983
ASUS45 KBOI 242310
RWRID

IDAHO REGIONAL WEATHER ROUNDUP
NATIONAL WEATHER SERVICE BOISE ID
500 PM MDT FRI MAR 24 2017

NOTE: "FAIR" INDICATES FEW OR NO CLOUDS BELOW 12000 FEET
WITH NO SIGNIFICANT WEATHER AND/OR OBSTRUCTIONS TO VISIBILITY

IDZ012-014-250000-
SOUTHWEST IDAHO


CITY           SKY/WX    TMP DP  RH WIND       PRES   REMARKS
BOISE          LGT RAIN  49  41  74 SE8       29.98S
CALDWELL       LGT RAIN  50  44  80 E13       29.97F
MOUNTAIN HOME  LGT RAIN  55  42  63 SW12      29.98R
$$

IDZ016-017-250000-
SOUTHCENTRAL IDAHO


CITY           SKY/WX    TMP DP  RH WIND       PRES   REMARKS
BURLEY         CLOUDY    55  27  34 S17G23    30.01S
JEROME         CLOUDY    55  34  45 S10       30.00F
TWIN FALLS     LGT RAIN  53  36  52 S13G29    29.99S
$$

IDZ019>023-250000-
SOUTHEAST IDAHO


CITY           SKY/WX    TMP DP  RH WIND       PRES   REMARKS
IDAHO FALLS    PTSUNNY   57  22  25 SW20G32   30.02F
POCATELLO      MOSUNNY   55  19  24 S30G37    30.03F
REXBURG        MOSUNNY   55  23  28 S17G26    30.01F
$$

IDZ006-010-011-018-031-032-250000-
CENTRAL IDAHO MOUNTAINS


CITY           SKY/WX    TMP DP  RH WIND       PRES   REMARKS
MCCALL         LGT RAIN  36  33  89 S8        29.93F WCI  30
HAILEY         DRIZZLE   41  34  75 N9        30.06F
STANLEY          N/A     34  32  92 SE10G21   29.99S WCI  26
SALMON         CLOUDY    57  27  30 SW25G35   29.85R
CHALLIS        LGT RAIN  48  30  49 S18G24    29.95R
$$

IDZ002-004-006-007-026-250000-
NORTHERN IDAHO


CITY           SKY/WX    TMP DP  RH WIND       PRES   REMARKS
LEWISTON       CLOUDY    52  39  61 S14       29.88R
LOWELL           N/A     47  42  83 N3        29.88R
COEUR D`ALENE  RAIN      43  41  93 S8        29.84R
MULLAN PASS    SNOW      31  31 100 VRB6G22   29.79S VSB 1/4 WCI  25
$$




USA.gov is the U.S. government's official web portal to all federal, state and local government web resources and services.